Regional Weather Roundup
Issued by NWS

Home | Current Version | Previous Version | Graphics & Text | Print | Product List | Glossary On
Versions: 1 2 3 4 5 6 7 8 9 10 11 12 13 14 15 16 17 18 19 20 21 22 23 24 25 26 27 28 29 30 31 32 33 34 35 36 37 38 39 40 41 42 43 44 45 46 47 48 49 50
000
ASUS43 KMKX 281321
RWRWI

WISCONSIN REGIONAL WEATHER ROUNDUP
NATIONAL WEATHER SERVICE MILWAUKEE/SULLIVAN WI
800 AM CDT SAT MAY 28 2016

NOTE: "FAIR" INDICATES FEW OR NO CLOUDS BELOW 12,000 FEET WITH NO
SIGNIFICANT WEATHER AND/OR OBSTRUCTIONS TO VISIBILITY.

WIZ001-002-006>008-014>016-023>028-281400-
NORTHWEST WISCONSIN

CITY           SKY/WX    TMP DP  RH WIND       PRES   REMARKS
SUPERIOR ARPT  CLOUDY    46  46 100 CALM      29.80S FOG
ASHLAND        CLOUDY    51  49  92 VRB3      29.78F
HAYWARD        LGT RAIN  57  55  93 N6        29.75F FOG
SIREN          CLOUDY    54  53  96 N5        29.78F
CUMBERLAND     CLOUDY    57  55  94 N8        29.74F FOG
RICE LAKE      CLOUDY    60  59  96 NE3       29.77R
CHETEK         CLOUDY    60  60 100 NE3       29.77R
LADYSMITH      CLOUDY    65  64  97 NE5       29.77F
EAU CLAIRE     CLOUDY    65  62  90 N3        29.73F
MENOMONIE      CLOUDY    65  65  99 CALM      29.75R FOG
NEW RICHMOND   CLOUDY    61  61 100 N10       29.74F FOG
OSCEOLA        FOG       59  59 100 N7        29.78F VSB 3/4
$$

WIZ003>005-009-010-017-018-281400-
NORTH CENTRAL WISCONSIN

CITY           SKY/WX    TMP DP  RH WIND       PRES   REMARKS
MANITOWISH WTR NOT AVBL
ARBOR VITAE    CLOUDY    67  65  93 CALM      29.78F
WOODRUFF       CLOUDY    67  65  93 CALM      29.78F
RHINELANDER    CLOUDY    68  65  90 SE6       29.79F FOG
EAGLE RIVER      N/A     66  65  96 S3        29.79S FOG
LAND O LAKES   CLOUDY    65  65  99 SE3       29.81S FOG
PHILLIPS       CLOUDY    65  65  97 CALM      29.77S
TOMAHAWK       CLOUDY    67  65  94 SE3       29.78S FOG
MEDFORD        LGT RAIN  66  66 100 CALM      29.76S
MERRILL        CLOUDY    68  68 100 SE6       29.78S FOG
$$

WIZ029-030-035-036-043>047-281400-
CENTRAL WISCONSIN

CITY           SKY/WX    TMP DP  RH WIND       PRES   REMARKS
WAUSAU         CLOUDY    70  66  87 SE7       29.75S
MOSINEE        CLOUDY    66  66 100 SE9G16    29.77S
MARSHFIELD     LGT RAIN  68  65  90 S10       29.75R FOG
STEVENS POINT  DRIZZLE   66  65  94 S9        29.78R
WAUPACA        CLOUDY    69  69 100 SE7       29.78S FOG
WAUTOMA        CLOUDY    68  66  94 S9        29.77S
WISC RAPIDS    LGT RAIN  68  64  87 SE6       29.76F FOG
CAMP DOUGLAS   CLOUDY    68  66  94 SE5       29.73R
$$

WIZ011>013-019>022-031-037>040-048>050-281400-
NORTHEAST WISCONSIN

CITY           SKY/WX    TMP DP  RH WIND       PRES   REMARKS
ANTIGO         LGT RAIN  65  65 100 SE7       29.80S
SHAWANO        CLOUDY    70  67  90 S8        29.79S
OCONTO         CLOUDY   N/A N/A N/A SE7       29.81S
STURGEON BAY   NOT AVBL
GREEN BAY      CLOUDY    71  66  84 S18G24    29.80F
MANITOWOC      CLOUDY    61  57  88 SE14      29.84F FOG
APPLETON       CLOUDY    70  66  88 SE12      29.79S
CLINTONVILLE   DRIZZLE   68  64  88 SE7       29.78F
OSHKOSH        CLOUDY    70  65  84 S13G22    29.79S
$$

WIZ032>034-041-042-053>061-281400-
SOUTHWEST WISCONSIN

CITY           SKY/WX    TMP DP  RH WIND       PRES   REMARKS
LA CROSSE      CLOUDY    68  66  93 SW3       29.71S
SPARTA         DRIZZLE   65  65 100 CALM      29.73S
VIROQUA        CLOUDY    66  66 100 S6        29.75R
BOSCOBEL       CLOUDY    68  65  90 S10       29.76R
PRAIRIE DU CHI CLOUDY    66  64  96 S7        29.76R
PLATTEVILLE    CLOUDY    66  64  94 S20       29.80R
$$

WIZ056-057-062-063-064-067-068-281400-
SOUTH CENTRAL WISCONSIN

CITY           SKY/WX    TMP DP  RH WIND       PRES   REMARKS
REEDSBURG      CLOUDY    68  66  94 S7        29.75R
BARABOO/DELLS  CLOUDY    68  64  87 S14       29.76R
LONE ROCK      CLOUDY    70  64  81 S13       29.77R
MINERAL POINT  CLOUDY    68  64  88 S16G22    29.79R
MADISON        CLOUDY    70  65  84 S15       29.78R
MIDDLETON      CLOUDY    70  66  85 S15       29.79R
WATERTOWN      CLOUDY    69  68  95 S10G22    29.80S
MONROE         CLOUDY    68  64  88 S16G22    29.81R
JANESVILLE     LGT RAIN  72  68  88 S18G24    29.81S
$$

WIZ051-052-058>065-066-070>072-281400-
SOUTHEAST WISCONSIN

CITY           SKY/WX    TMP DP  RH WIND       PRES   REMARKS
MILWAUKEE      PTSUNNY   71  65  81 S14       29.84S
WAUKESHA       PTSUNNY   70  64  83 S12       29.84S
MILWAUKEE/TIMM SUNNY     70  63  78 S12G18    29.83F
RACINE         PTSUNNY   65  60  84 S9        29.88R
BURLINGTON     PTSUNNY   70  65  84 S9G21     29.85R
KENOSHA        PTSUNNY   73  65  75 S16G22    29.86R
FOND DU LAC    CLOUDY    71  66  84 S13       29.80R
SHEBOYGAN      CLOUDY    65  62  90 SE7       29.83S
WEST BEND      CLOUDY    70  64  83 S14G20    29.83S
JUNEAU         CLOUDY    69  65  88 S14       29.82R
$$

LSZ147-162-281400-
LAKE SUPERIOR

STATION/POSITION TIME  TEMP    WIND        PRES    WAVE
                       AIR SEA DIR/SP/G            HT/PER
                 (UTC) (F)     (DEG/KT/KT) (MB)    (FT/S)
W MID LAKE BUOY  1250   40 38   30/ 10/ 12 1008.6R   2/ 4
DEVILS ISLAND    1300   43      50/  7/  8 1009.2R
SAXON HARBOR     1200   50      CALM  /  1 1008.1
$$

LMZ867-665-643>646-281400-
LAKE MICHIGAN

STATION/POSITION TIME  TEMP    WIND        PRES    WAVE
                       AIR SEA DIR/SP/G            HT/PER
                 (UTC) (F)     (DEG/KT/KT) (MB)    (FT/S)
CHAMBERS ISLAND  1200   62     130/  6/ 10 1010.2S
N MID LAKE BUOY  1250   53 46  190/ 14/ 16 1011.0R   2/ 4
NORTHPORT PIER   1200   56     160/  8/ 13 1010.5F
SISTER BAY       1205   57     180/ 13/ 16   N/A
ALGOMA LAKESHORE 1217          190/  6/  8   N/A
KEWAUNEE LAKESHO 1200   52     170/  9/ 10 1010.1S
SHEBOYGAN LAKESH 1300   53     160/ 14/ 14 1010.7F
PORT WASHINGTON  1200   57     190/  2/  5 1011.2F
S MID LAKE BUOY  1250   57 50  160/ 16/ 17 1011.7R   1/ 3
KENOSHA   LAKESH 1300   54     170/ 11/ 14 1011.2S
$$

TC  - TEMPERATURE IN CELSIUS
VSB - VISIBILITY IN STATUTE MILES
WCI - WIND CHILL INDEX
HX  - HEAT INDEX





USA.gov is the U.S. government's official web portal to all federal, state and local government web resources and services.